sat.trackr.live / text

‹ back to catalog

STARLINK-5454

NORAD 54774 · 2022-175S

PAYLOAD ACTIVE UNKNOWN

§ Identity

Operator
Country
US
Launch date
2022-12-17
Launch site
AFETR
Launch vehicle
Mass (kg)
RCS (m²)

Purposes: comms

External: N2YO · Heavens-Above · Gunter

§ Orbital elements

Epoch: 2026-05-25T03:03:07.274592Z

Period
95.44 min
Inclination
53.2143°
Eccentricity
0.0001250
Mean motion
15.08839136 rev/d
Perigee alt
538.9 km
Apogee alt
540.6 km
Semi-major
6,917.9 km
B*
2.5428e-5
RAAN
45.6568°
Arg perigee
91.7407°
Mean anomaly
268.3729°
Rev number
19,167

§ Raw data

STARLINK-54541 54774U 22175S   26145.12716753  .00000117  00000+0  25428-4 0  99972 54774  53.2143  45.6568 0001250  91.7407 268.3729 15.08839136191672

JSON: /api/v1/satellites/54774 · /tle

For live sub-satellite position, see the globe view (requires WebGL).

§ Visibility from observer

Set your observer location to see the next 7 days of passes ≥ 10°. The values pass through the URL so the page stays shareable.

No JS? Fill the form by hand. The geolocation button needs JavaScript.